W5XO-8 Weather Reports


Display with metric or nautical units.
time (UTC)temp
F
wind
direction
speed
MPH
gust
MPH
rain 1hr
in
rain 24hr
in
rain mn
in
humidity
%
barometer
mb
20201204114533 40 327 0.0 0.0 0.00 0.00 0.00 81 1020.7
20201204114018 40 329 0.0 0.0 0.00 0.00 0.00 81 1020.7
20201204113559 40 329 0.0 0.0 0.00 0.00 0.00 81 1020.7
20201204113516 40 329 0.0 0.0 0.00 0.00 0.00 81 1020.7
20201204113243 40 331 0.0 0.0 0.00 0.00 0.00 81 1020.5
20201204112600 40 338 0.0 0.0 0.00 0.00 0.00 81 1020.5
20201204112050 40 334 0.0 0.0 0.00 0.00 0.00 81 1020.5
20201204111653 40 336 0.0 0.0 0.00 0.00 0.00 80 1020.1
20201204111046 40 326 0.0 0.0 0.00 0.00 0.00 80 1020.1
20201204110102 40 344 0.0 0.0 0.00 0.00 0.00 79 1020.1
20201204105534 40 355 0.0 0.0 0.00 0.00 0.00 79 1020.1
20201204105038 41 340 0.0 0.0 0.00 0.00 0.00 79 1020.1
20201204104526 41 334 0.0 0.0 0.00 0.00 0.00 79 1020.1
20201204104020 41 332 0.0 0.0 0.00 0.00 0.00 78 1020.1
20201204103620 41 333 1.0 0.0 0.00 0.00 0.00 78 1020.1
20201204103509 41 340 1.0 0.0 0.00 0.00 0.00 78 1020.1
20201204103205 41 348 1.0 0.0 0.00 0.00 0.00 78 1020.1
20201204102555 41 310 0.0 0.0 0.00 0.00 0.00 79 1020.1
20201204102058 41 331 0.0 0.0 0.00 0.00 0.00 78 1020.1
20201204101717 41 321 1.0 0.0 0.00 0.00 0.00 78 1020.1
20201204101050 41 333 1.0 0.0 0.00 0.00 0.00 78 1020.1
20201204100211 41 329 1.0 0.0 0.00 0.00 0.00 78 1020.2
20201204095554 41 348 1.0 0.0 0.00 0.00 0.00 78 1020.2
20201204095037 41 338 0.0 0.0 0.00 0.00 0.00 78 1020.2
20201204094552 42 309 0.0 0.0 0.00 0.00 0.00 78 1020.2
20201204094032 42 322 0.0 0.0 0.00 0.00 0.00 78 1020.2
20201204093538 42 338 0.0 0.0 0.00 0.00 0.00 78 1020.2
20201204093103 42 314 0.0 0.0 0.00 0.00 0.00 78 1020.2
20201204092514 42 328 0.0 0.0 0.00 0.00 0.00 78 1020.2
20201204091753 42 5 0.0 0.0 0.00 0.00 0.00 78 1020.1
20201204091104 42 320 1.0 0.0 0.00 0.00 0.00 78 1020.1
20201204090521 42 331 2.0 0.0 0.00 0.00 0.00 78 1020.1
20201204085556 42 329 1.0 0.0 0.00 0.00 0.00 78 1020.1
20201204085051 42 331 0.0 0.0 0.00 0.00 0.00 78 1020.1
20201204084701 42 336 1.0 0.0 0.00 0.00 0.00 78 1020.1
20201204084027 42 323 1.0 0.0 0.00 0.00 0.00 78 1020.1
20201204083521 42 342 0.0 0.0 0.00 0.00 0.00 78 1020.1
20201204083015 42 341 1.0 0.0 0.00 0.00 0.00 77 1020.1
20201204082609 42 333 1.0 0.0 0.00 0.00 0.00 77 1020.1
20201204082058 42 338 1.0 0.0 0.00 0.00 0.00 77 1020.1
20201204081746 42 324 2.0 0.0 0.00 0.00 0.00 77 1020.2
20201204081100 42 317 1.0 0.0 0.00 0.00 0.00 78 1020.2
20201204080513 42 339 0.0 0.0 0.00 0.00 0.00 78 1020.2
20201204080209 42 333 0.0 0.0 0.00 0.00 0.00 78 1020.1
20201204075601 42 312 0.0 0.0 0.00 0.00 0.00 78 1020.1
20201204075054 42 319 0.0 0.0 0.00 0.00 0.00 78 1020.1
20201204074559 42 315 0.0 0.0 0.00 0.00 0.00 77 1020.1
20201204074109 42 320 0.0 0.0 0.00 0.00 0.00 77 1020.1
20201204073537 42 302 0.0 0.0 0.00 0.00 0.00 77 1020.1
20201204073120 42 320 0.0 0.0 0.00 0.00 0.00 77 1020.1
20201204072538 42 348 0.0 0.0 0.00 0.00 0.00 77 1020.1
20201204072027 42 355 0.0 0.0 0.00 0.00 0.00 77 1020.1
20201204071521 42 327 0.0 0.0 0.00 0.00 0.00 77 1020.5
20201204071026 42 325 0.0 0.0 0.00 0.00 0.00 77 1020.5
20201204070537 42 317 0.0 0.0 0.00 0.00 0.00 77 1020.5
20201204070043 42 309 0.0 0.0 0.00 0.00 0.00 77 1020.6
20201204065522 42 338 0.0 0.0 0.00 0.00 0.00 76 1020.6
20201204065018 42 320 0.0 0.0 0.00 0.00 0.00 76 1020.6
20201204064618 42 304 0.0 0.0 0.00 0.00 0.00 76 1020.7
20201204064515 42 298 0.0 0.0 0.00 0.00 0.00 76 1020.7
20201204064100 42 291 0.0 0.0 0.00 0.00 0.00 76 1020.7
20201204063557 43 289 1.0 0.0 0.00 0.00 0.00 76 1020.7
20201204063131 43 321 1.0 0.0 0.00 0.00 0.00 76 1020.9
20201204062548 43 306 0.0 0.0 0.00 0.00 0.00 76 1020.9
20201204062056 43 286 0.0 0.0 0.00 0.00 0.00 76 1020.9
20201204061613 43 304 0.0 0.0 0.00 0.00 0.00 76 1021.0
20201204061044 43 309 0.0 0.0 0.00 0.00 0.00 76 1021.0
20201204060121 43 269 0.0 0.0 0.00 0.00 0.00 75 1021.1
20201204055536 43 313 1.0 0.0 0.00 0.00 0.00 75 1021.1
20201204055029 43 308 1.0 0.0 0.00 0.00 0.00 75 1021.1
20201204054540 44 298 2.0 0.0 0.00 0.00 0.00 75 1021.2
20201204054023 44 320 1.0 0.0 0.00 0.00 0.00 75 1021.2
20201204053516 44 292 1.0 0.0 0.00 0.00 0.00 75 1021.2
20201204052600 44 344 1.0 0.0 0.00 0.00 0.00 75 1021.1
20201204052053 44 332 1.0 0.0 0.00 0.00 0.00 75 1021.1
20201204051647 44 328 2.0 0.0 0.00 0.00 0.00 75 1021.2
20201204051054 44 293 2.0 0.0 0.00 0.00 0.00 75 1021.2
20201204050109 44 296 1.0 0.0 0.00 0.00 0.00 75 1021.2
20201204045542 44 294 2.0 0.0 0.00 0.00 0.00 74 1021.2
20201204045045 44 300 2.0 0.0 0.00 0.00 0.00 75 1021.2
20201204044536 44 333 1.0 0.0 0.00 0.00 0.00 75 1021.1
20201204044029 44 291 3.0 0.0 0.00 0.00 0.00 75 1021.1
20201204043532 44 13 3.0 0.0 0.00 0.00 0.00 75 1021.1
20201204043027 44 319 4.0 0.0 0.00 0.00 0.00 75 1020.9
20201204042515 44 307 3.0 0.0 0.00 0.00 0.00 75 1020.9
20201204042010 45 338 3.0 0.0 0.00 0.00 0.00 75 1020.9
20201204041840 45 311 2.0 0.0 0.00 0.00 0.00 74 1020.7
20201204041520 45 349 2.0 0.0 0.00 0.00 0.00 75 1020.7
20201204041111 45 5 1.0 0.0 0.00 0.00 0.00 75 1020.7
20201204040512 45 327 0.0 0.0 0.00 0.00 0.00 75 1020.7
20201204040017 45 322 0.0 0.0 0.00 0.00 0.00 75 1020.9
20201204035510 45 340 0.0 0.0 0.00 0.00 0.00 75 1020.9
20201204035057 45 333 1.0 0.0 0.00 0.00 0.00 75 1020.9
20201204034640 45 340 1.0 0.0 0.00 0.00 0.00 74 1020.8
20201204034107 45 350 3.0 0.0 0.00 0.00 0.00 74 1020.8
20201204033615 45 317 3.0 0.0 0.00 0.00 0.00 74 1020.8
20201204033111 45 295 2.0 0.0 0.00 0.00 0.00 74 1020.6
20201204032535 45 355 2.0 0.0 0.00 0.00 0.00 74 1020.6
20201204032029 45 323 2.0 0.0 0.00 0.00 0.00 74 1020.6
20201204031531 45 306 2.0 0.0 0.00 0.00 0.00 74 1020.6
20201204031024 45 340 1.0 0.0 0.00 0.00 0.00 74 1020.6
20201204030033 45 320 3.0 0.0 0.00 0.00 0.00 74 1020.3
20201204025524 45 336 4.0 0.0 0.00 0.00 0.00 74 1020.3
20201204025026 45 360 2.0 0.0 0.00 0.00 0.00 74 1020.3
20201204024521 45 306 4.0 0.0 0.00 0.00 0.00 74 1020.2
20201204023558 46 331 4.0 0.0 0.00 0.00 0.00 75 1020.2
20201204023319 46 336 3.0 0.0 0.00 0.00 0.00 75 1020.1
20201204022550 46 328 2.0 0.0 0.00 0.00 0.00 74 1020.1
20201204022100 46 339 2.0 0.0 0.00 0.00 0.00 75 1020.1
20201204021659 46 325 2.0 0.0 0.00 0.00 0.00 75 1020.2
20201204021036 46 329 2.0 0.0 0.00 0.00 0.00 75 1020.2
20201204020025 46 329 1.0 0.0 0.00 0.00 0.00 75 1020.6
20201204015532 46 303 0.0 0.0 0.00 0.00 0.00 75 1020.6
20201204014738 46 327 1.0 0.0 0.00 0.00 0.00 75 1019.7
20201204014104 46 311 1.0 0.0 0.00 0.00 0.00 75 1019.7
20201204013551 46 321 1.0 0.0 0.00 0.00 0.00 75 1019.7
20201204013200 46 355 1.0 0.0 0.00 0.00 0.00 75 1019.6
20201204012543 46 341 1.0 0.0 0.00 0.00 0.00 75 1019.6
20201204012126 46 309 1.0 0.0 0.00 0.00 0.00 75 1019.6
20201204011556 46 350 2.0 0.0 0.00 0.00 0.00 75 1019.6
20201204011040 46 298 1.0 0.0 0.00 0.00 0.00 75 1019.6
20201204010224 46 316 1.0 0.0 0.00 0.00 0.00 75 1019.4
20201204005538 46 300 2.0 0.0 0.00 0.00 0.00 74 1019.4
20201204005029 46 319 4.0 0.0 0.00 0.00 0.00 74 1019.4
20201204004539 46 343 5.0 0.0 0.00 0.00 0.00 74 1019.2
20201204004022 46 317 5.0 0.0 0.00 0.00 0.00 74 1019.2
20201204003515 46 315 7.0 0.0 0.00 0.00 0.00 74 1019.2
20201204003024 46 360 8.0 0.0 0.00 0.00 0.00 74 1019.2
20201204002608 46 332 7.0 0.0 0.00 0.00 0.00 74 1019.2
20201204002518 46 301 6.0 0.0 0.00 0.00 0.00 75 1019.2
20201204002054 46 315 3.0 0.0 0.00 0.00 0.00 75 1019.2
20201204001729 46 318 2.0 0.0 0.00 0.00 0.00 75 1019.1
20201204001101 46 336 2.0 0.0 0.00 0.00 0.00 75 1019.1
20201204000219 46 328 3.0 0.0 0.00 0.00 0.00 75 1019.0
20201203235548 46 322 3.0 0.0 0.00 0.00 0.00 74 1019.0
20201203235047 46 332 1.0 0.0 0.00 0.00 0.00 74 1019.0
20201203234658 46 339 2.0 0.0 0.00 0.00 0.00 74 1019.0
20201203234041 46 306 2.0 0.0 0.00 0.00 0.00 74 1019.0
20201203233533 46 336 1.0 0.0 0.00 0.00 0.00 74 1019.0
20201203233051 46 321 4.0 0.0 0.00 0.00 0.00 74 1018.9
20201203232524 46 329 5.0 0.0 0.00 0.00 0.00 73 1018.9
20201203232028 46 349 5.0 0.0 0.00 0.00 0.00 73 1018.9
20201203231711 46 314 6.0 0.0 0.00 0.00 0.00 73 1018.8
20201203231106 46 324 7.0 0.0 0.00 0.00 0.00 73 1018.8
20201203230517 47 327 5.0 0.0 0.00 0.00 0.00 73 1018.8
20201203230020 47 321 3.0 0.0 0.00 0.00 0.00 73 1018.7
20201203225608 47 348 3.0 0.0 0.00 0.00 0.00 73 1018.7
20201203225517 47 334 3.0 0.0 0.00 0.00 0.00 73 1018.7
20201203225207 47 290 4.0 0.0 0.00 0.00 0.00 72 1018.7
20201203224647 47 333 4.0 0.0 0.00 0.00 0.00 72 1018.6
20201203224112 47 312 3.0 0.0 0.00 0.00 0.00 72 1018.6
20201203223538 47 301 4.0 0.0 0.00 0.00 0.00 72 1018.6
20201203223109 47 349 3.0 0.0 0.00 0.00 0.00 72 1018.6
20201203222527 47 327 4.0 0.0 0.00 0.00 0.00 72 1018.6
20201203222026 48 302 3.0 0.0 0.00 0.00 0.00 72 1018.6
20201203221545 48 290 3.0 0.0 0.00 0.00 0.00 71 1018.6
20201203221025 48 331 4.0 0.0 0.00 0.00 0.00 71 1018.6
20201203220023 48 306 4.0 0.0 0.00 0.00 0.00 70 1018.4
20201203215513 48 313 5.0 0.0 0.00 0.00 0.00 70 1018.4
20201203214626 48 347 7.0 0.0 0.00 0.00 0.00 70 1018.4
20201203214056 48 331 6.0 0.0 0.00 0.00 0.00 69 1018.4
20201203213554 49 302 5.0 0.0 0.00 0.00 0.00 69 1018.4
20201203213102 49 325 7.0 0.0 0.00 0.00 0.00 68 1018.2
20201203212542 49 339 10.0 0.0 0.00 0.00 0.00 68 1018.2
20201203212042 50 349 9.0 0.0 0.00 0.00 0.00 67 1018.2
20201203211559 50 342 8.0 0.0 0.00 0.00 0.00 66 1018.0
20201203211030 51 10 9.0 0.0 0.00 0.00 0.00 66 1018.0
20201203210052 51 314 5.0 0.0 0.00 0.00 0.00 66 1018.0
20201203205520 51 333 6.0 0.0 0.00 0.00 0.00 66 1018.0
20201203205018 51 313 7.0 0.0 0.00 0.00 0.00 65 1018.0
20201203204518 51 284 8.0 0.0 0.00 0.00 0.00 66 1017.9
20201203204105 52 301 6.0 0.0 0.00 0.00 0.00 64 1017.9
20201203203553 52 344 4.0 0.0 0.00 0.00 0.00 64 1017.9
20201203203126 52 317 4.0 0.0 0.00 0.00 0.00 64 1018.1
20201203202546 52 278 5.0 0.0 0.00 0.00 0.00 65 1018.1
20201203202043 51 321 6.0 0.0 0.00 0.00 0.00 65 1018.1
20201203201604 51 5 4.0 0.0 0.00 0.00 0.00 64 1018.1
20201203201050 51 36 2.0 0.0 0.00 0.00 0.00 66 1018.1
20201203200054 51 331 7.0 0.0 0.00 0.00 0.00 65 1018.4
20201203195533 51 300 6.0 0.0 0.00 0.00 0.00 66 1018.4
20201203195035 50 311 3.0 0.0 0.00 0.00 0.00 67 1018.4
20201203194535 49 345 1.0 0.0 0.00 0.00 0.00 68 1018.6
20201203194023 49 291 3.0 0.0 0.00 0.00 0.00 67 1018.6
20201203193519 49 312 4.0 0.0 0.00 0.00 0.00 67 1018.6
20201203192621 50 302 1.0 0.0 0.00 0.00 0.00 67 1018.7
20201203192510 50 266 1.0 0.0 0.00 0.00 0.00 67 1018.7
20201203192059 50 317 2.0 0.0 0.00 0.00 0.00 67 1018.7
20201203191634 50 298 2.0 0.0 0.00 0.00 0.00 66 1018.9
20201203191113 49 349 1.0 0.0 0.00 0.00 0.00 68 1018.9
20201203190141 49 333 1.0 0.0 0.00 0.00 0.00 67 1019.1
20201203185544 49 309 2.0 0.0 0.00 0.00 0.00 67 1019.1
20201203185040 49 315 1.0 0.0 0.00 0.00 0.00 67 1019.1
20201203184643 49 300 1.0 0.0 0.00 0.00 0.00 67 1019.2
20201203184044 49 317 1.0 0.0 0.00 0.00 0.00 68 1019.2
20201203183525 48 338 1.0 0.0 0.00 0.00 0.00 68 1019.2
20201203183019 48 329 1.0 0.0 0.00 0.00 0.00 68 1019.6
20201203182513 48 333 1.0 0.0 0.00 0.00 0.00 69 1019.6
20201203182008 47 329 2.0 0.0 0.00 0.00 0.00 68 1019.6
20201203181717 47 311 3.0 0.0 0.00 0.00 0.00 69 1019.6
20201203181525 47 317 3.0 0.0 0.00 0.00 0.00 69 1019.6
20201203181105 47 298 2.0 0.0 0.00 0.00 0.00 68 1019.6
20201203180506 48 327 2.0 0.0 0.00 0.00 0.00 68 1019.6
20201203180122 47 315 5.0 0.0 0.00 0.00 0.00 69 1020.1
20201203175556 47 285 5.0 0.0 0.00 0.00 0.00 68 1020.1
20201203175057 47 261 5.0 0.0 0.00 0.00 0.00 68 1020.1
20201203174639 47 324 5.0 0.0 0.00 0.00 0.00 67 1020.1
20201203174042 48 336 4.0 0.0 0.00 0.00 0.00 67 1020.1
20201203173539 48 336 5.0 0.0 0.00 0.00 0.00 67 1020.1
20201203173108 47 326 5.0 0.0 0.00 0.00 0.00 67 1020.3
20201203172545 47 335 5.0 0.0 0.00 0.00 0.00 68 1020.3
20201203172040 47 287 7.0 0.0 0.00 0.00 0.00 68 1020.3
20201203171544 48 336 6.0 0.0 0.00 0.00 0.00 67 1020.5
20201203171025 48 323 5.0 0.0 0.00 0.00 0.00 68 1020.5
20201203170107 47 333 5.0 0.0 0.00 0.00 0.00 67 1020.5
20201203165538 47 326 5.0 0.0 0.00 0.00 0.00 68 1020.5
20201203165040 47 288 6.0 0.0 0.00 0.00 0.00 67 1020.5
20201203164538 47 349 8.0 0.0 0.00 0.00 0.00 68 1020.1
20201203164048 46 306 9.0 0.0 0.00 0.00 0.00 67 1020.1
20201203163519 46 306 7.0 0.0 0.00 0.00 0.00 68 1020.1
20201203162555 46 296 8.0 0.0 0.00 0.00 0.00 69 1020.1
20201203162050 46 303 6.0 0.0 0.00 0.00 0.00 69 1020.1
20201203161618 46 315 4.0 0.0 0.00 0.00 0.00 69 1019.9
20201203161049 45 319 4.0 0.0 0.00 0.00 0.00 70 1019.9
20201203160134 45 323 3.0 0.0 0.00 0.00 0.00 71 1019.9
20201203155540 45 312 3.0 0.0 0.00 0.00 0.00 72 1019.9
20201203155034 44 318 7.0 0.0 0.00 0.00 0.00 72 1019.9
20201203154602 43 321 8.0 0.0 0.00 0.00 0.00 72 1020.1
20201203154031 43 317 8.0 0.0 0.00 0.00 0.00 72 1020.1
20201203153527 43 313 9.0 0.0 0.00 0.00 0.00 73 1020.1
20201203153120 42 291 9.0 0.0 0.00 0.00 0.00 72 1020.1
20201203152514 42 308 4.0 0.0 0.00 0.00 0.00 72 1020.1
20201203152020 43 300 3.0 0.0 0.00 0.00 0.00 73 1020.1
20201203151707 42 293 5.0 0.0 0.00 0.00 0.00 72 1019.9
20201203151520 42 271 5.0 0.0 0.00 0.00 0.00 72 1019.9
20201203151103 42 317 4.0 0.0 0.00 0.00 0.00 72 1019.9
20201203150139 42 300 5.0 0.0 0.00 0.00 0.00 72 1019.6
20201203145539 42 328 4.0 0.0 0.00 0.00 0.00 73 1019.6
20201203145051 41 306 5.0 0.0 0.00 0.00 0.00 73 1019.6
20201203144600 41 289 4.0 0.0 0.00 0.00 0.00 74 1019.6
20201203144029 41 291 4.0 0.0 0.00 0.00 0.00 74 1019.6
20201203143533 40 273 2.0 0.0 0.00 0.00 0.00 75 1019.6
20201203143052 40 288 1.0 0.0 0.00 0.00 0.00 76 1019.6
20201203142518 39 291 1.0 0.0 0.00 0.00 0.00 77 1019.6
20201203142038 39 271 0.0 0.0 0.00 0.00 0.00 77 1019.6
20201203141528 39 302 0.0 0.0 0.00 0.00 0.00 78 1019.6
20201203140518 38 267 0.0 0.0 0.00 0.00 0.00 79 1019.6
20201203140038 38 303 0.0 0.0 0.00 0.00 0.00 80 1019.6
20201203135514 37 271 0.0 0.0 0.00 0.00 0.00 80 1019.6
20201203135101 37 294 0.0 0.0 0.00 0.00 0.00 81 1019.6
20201203134607 37 275 0.0 0.0 0.00 0.00 0.00 81 1019.6
20201203134052 37 289 0.0 0.0 0.00 0.00 0.00 82 1019.6
20201203133540 36 267 0.0 0.0 0.00 0.00 0.00 82 1019.6
20201203133135 36 268 0.0 0.0 0.00 0.00 0.00 83 1019.3
20201203132530 36 260 0.0 0.0 0.00 0.00 0.00 83 1019.3
20201203132029 36 266 0.0 0.0 0.00 0.00 0.00 83 1019.3
20201203131525 36 265 0.0 0.0 0.00 0.00 0.00 83 1018.9
20201203131024 36 266 0.0 0.0 0.00 0.00 0.00 83 1018.9
20201203130519 36 287 0.0 0.0 0.00 0.00 0.00 83 1018.9
20201203130046 36 274 0.0 0.0 0.00 0.00 0.00 83 1018.7
20201203125518 36 280 0.0 0.0 0.00 0.00 0.00 83 1018.7
20201203125016 36 283 0.0 0.0 0.00 0.00 0.00 83 1018.7
20201203124637 36 300 0.0 0.0 0.00 0.00 0.00 84 1018.8
20201203124054 36 271 0.0 0.0 0.00 0.00 0.00 84 1018.8
20201203123549 36 282 0.0 0.0 0.00 0.00 0.00 84 1018.8
20201203123121 36 273 0.0 0.0 0.00 0.00 0.00 83 1018.6
20201203122542 36 289 0.0 0.0 0.00 0.00 0.00 83 1018.6
20201203122039 36 282 0.0 0.0 0.00 0.00 0.00 83 1018.6
20201203121545 36 262 1.0 0.0 0.00 0.00 0.00 83 1018.5
20201203121028 36 275 1.0 0.0 0.00 0.00 0.00 83 1018.5
20201203120133 36 267 0.0 0.0 0.00 0.00 0.00 83 1018.5
20201203115540 36 275 0.0 0.0 0.00 0.00 0.00 83 1018.5
20201203115034 37 294 0.0 0.0 0.00 0.00 0.00 83 1018.5